Regional Weather Roundup
Issued by NWS Cleveland, OH

Home | Current Version | Previous Version | Text Only | Print | Product List | Glossary Off
Versions: 1 2 3 4 5 6 7 8 9 10 11 12 13 14 15 16 17 18 19 20 21 22 23 24 25 26 27 28 29 30 31 32 33 34 35 36 37 38 39 40 41 42 43 44 45 46 47 48 49 50

000
ASUS41 KCLE 250810
RWRCLE
OHIO REGIONAL WEATHER ROUNDUP
NATIONAL WEATHER SERVICE CLEVELAND, OH
300 AM EST SAT NOV 25 2017

NOTE: "FAIR" INDICATES FEW OR NO CLOUDS BELOW 12,000 FEET WITH NO
SIGNIFICANT WEATHER AND/OR OBSTRUCTIONS TO VISIBILITY.

OHZ001>008-015>018-024>027-034-035-043-044-250900-
   NORTHWEST OHIO

CITY           SKY/WX    TMP DP  RH WIND       PRES   REMARKS
DEFIANCE       PTCLDY    49  33  54 SW9G17    29.61R
FINDLAY        CLOUDY    50  30  46 SW16      29.62R
TOLEDO EXPRESS CLOUDY    49  34  56 SW12      29.59R
TOLEDO EXEC    CLOUDY    48  33  56 SW14      29.61R
LIMA           CLOUDY    49  32  52 SW14      29.65R
$$

OHZ009>014-019>023-028>033-038-089-250900-
   NORTHEAST OHIO

CITY           SKY/WX    TMP DP  RH WIND       PRES   REMARKS
CLE-HOPKINS    CLOUDY    51  28  41 S15       29.64R
CLE-LAKEFRONT  CLOUDY    52  26  36 S17       29.60S
CUY CO. ARPT   NOT AVBL
LORAIN-ELYRIA  PTCLDY    51  26  37 SW21G26   29.63R
ASHTABULA      CLEAR     48  24  39 S12       29.64R
AKRON-CANTON   MOCLDY    49  23  36 SW16      29.67F
WOOSTER        PTCLDY    47  26  44 SW10      29.67R
MANSFIELD      MOCLDY    49  28  44 SW18G29   29.66R
YOUNGSTOWN     CLOUDY    50  25  37 SW12G20   29.66F
$$

OHZ042-051>053-060>062-070>072-077>081-250900-
  SOUTHWEST OHIO

CITY           SKY/WX    TMP DP  RH WIND       PRES   REMARKS
CINC-COVINGTON CLOUDY    50  30  46 SW14G21   29.74R
CINC-LUNKEN    PTCLDY    52  31  44 SW15      29.76R
HAMILTON       PTCLDY    52  29  41 SW12      29.74R
DAYTON         CLOUDY    49  29  46 SW16      29.70R
WRIGHT-PAT AFB CLOUDY    51  25  37 SW15      29.70R
DAYTON GENERAL PTCLDY    50  27  40 SW13      29.71R
WILMINGTON     MOCLDY    48  31  51 SW17      29.73R
$$

OHZ036-037-039>041-045>050-054>059-063>069-073>076-082>088-250900-
  CENTRAL AND SOUTHEAST OHIO

CITY           SKY/WX    TMP DP  RH WIND       PRES   REMARKS
COLUMBUS       CLOUDY    49  29  46 S9        29.71S
OSU AIRPORT    MOCLDY    48  30  49 S13       29.70S
BOLTON FIELD   MOCLDY    48  30  51 SW14G20   29.71S
RICKENBACK AFB MOCLDY    48  30  48 SW14G20   29.72S
NEWARK         CLOUDY    49  26  41 SW7       29.71F
MARION         MOCLDY    47  29  49 S13       29.67R
LANCASTER      CLOUDY    51  30  44 SW12      29.72F
ZANESVILLE     CLOUDY    47  26  44 S9        29.73F
NEW PHILLY     NOT AVBL
$$




USA.gov is the U.S. government's official web portal to all federal, state and local government web resources and services.